Time,TemperatureF,DewpointF,PressureIn,WindDirection,WindDirectionDegrees,WindSpeedMPH,WindSpeedGustMPH,Humidity,HourlyPrecipIn,Conditions,Clouds,dailyrainin,SoftwareType,DateUTC
2014-01-19 00:10:00,55.0,44.0,30.18,WSW,247,0.0,0.0,67,0.00,,,0.00,weatherlink.com 1.10,2014-01-19 06:10:00,
2014-01-19 00:25:00,53.8,43.0,30.18,SSE,155,0.0,1.0,67,0.00,,,0.00,weatherlink.com 1.10,2014-01-19 06:25:00,
2014-01-19 00:40:00,52.8,43.0,30.19,SSE,155,0.0,0.0,69,0.00,,,0.00,weatherlink.com 1.10,2014-01-19 06:40:00,
2014-01-19 00:55:00,52.1,43.0,30.19,SSE,155,0.0,0.0,71,0.00,,,0.00,weatherlink.com 1.10,2014-01-19 06:55:00,
2014-01-19 01:10:00,51.5,43.0,30.19,SSE,155,0.0,0.0,73,0.00,,,0.00,weatherlink.com 1.10,2014-01-19 07:10:00,
2014-01-19 01:25:00,51.2,43.0,30.19,SSE,155,0.0,0.0,74,0.00,,,0.00,weatherlink.com 1.10,2014-01-19 07:25:00,
2014-01-19 01:40:00,50.9,43.0,30.19,SSE,155,0.0,0.0,75,0.00,,,0.00,weatherlink.com 1.10,2014-01-19 07:40:00,
2014-01-19 01:55:00,50.8,43.0,30.19,SSE,155,0.0,0.0,75,0.00,,,0.00,weatherlink.com 1.10,2014-01-19 07:55:00,
2014-01-19 02:10:00,50.9,43.0,30.19,SSE,155,0.0,1.0,75,0.00,,,0.00,weatherlink.com 1.10,2014-01-19 08:10:00,
2014-01-19 02:25:00,51.1,43.0,30.19,SSE,155,0.0,0.0,74,0.00,,,0.00,weatherlink.com 1.10,2014-01-19 08:25:00,
2014-01-19 02:40:00,51.1,43.0,30.19,NW,321,0.0,1.0,75,0.00,,,0.00,weatherlink.com 1.10,2014-01-19 08:40:00,
2014-01-19 02:55:00,51.1,43.0,30.19,NW,315,1.0,1.0,74,0.00,,,0.00,weatherlink.com 1.10,2014-01-19 08:55:00,
2014-01-19 03:11:00,51.0,43.0,30.19,NW,323,0.0,1.0,75,0.00,,,0.00,weatherlink.com 1.10,2014-01-19 09:11:00,
2014-01-19 03:26:00,50.9,43.0,30.19,NW,321,0.0,3.0,75,0.00,,,0.00,weatherlink.com 1.10,2014-01-19 09:26:00,
2014-01-19 03:41:00,50.5,43.0,30.20,NW,316,1.0,3.0,75,0.00,,,0.00,weatherlink.com 1.10,2014-01-19 09:41:00,
2014-01-19 03:56:00,50.3,43.0,30.20,NW,325,0.0,1.0,76,0.00,,,0.00,weatherlink.com 1.10,2014-01-19 09:56:00,
2014-01-19 04:12:00,49.6,42.0,30.20,NW,316,0.0,2.0,76,0.00,,,0.00,weatherlink.com 1.10,2014-01-19 10:12:00,
2014-01-19 04:26:00,49.0,42.0,30.20,NW,313,0.0,2.0,78,0.00,,,0.00,weatherlink.com 1.10,2014-01-19 10:26:00,
2014-01-19 04:41:00,48.6,42.0,30.21,NW,322,0.0,3.0,78,0.00,,,0.00,weatherlink.com 1.10,2014-01-19 10:41:00,
2014-01-19 04:56:00,48.4,42.0,30.21,NW,321,0.0,2.0,79,0.00,,,0.00,weatherlink.com 1.10,2014-01-19 10:56:00,
2014-01-19 05:11:00,48.3,42.0,30.21,NW,319,0.0,3.0,79,0.00,,,0.00,weatherlink.com 1.10,2014-01-19 11:11:00,
2014-01-19 05:26:00,48.5,43.0,30.22,North,350,1.0,4.0,80,0.00,,,0.00,weatherlink.com 1.10,2014-01-19 11:26:00,
2014-01-19 05:41:00,49.4,44.0,30.23,NNE,15,3.0,8.0,80,0.00,,,0.00,weatherlink.com 1.10,2014-01-19 11:41:00,
2014-01-19 05:56:00,50.4,43.0,30.23,North,351,2.0,8.0,76,0.00,,,0.00,weatherlink.com 1.10,2014-01-19 11:56:00,
2014-01-19 06:11:00,50.0,42.0,30.23,NNE,14,2.0,7.0,75,0.00,,,0.00,weatherlink.com 1.10,2014-01-19 12:11:00,
2014-01-19 06:26:00,51.0,42.0,30.24,North,5,2.0,8.0,70,0.00,,,0.00,weatherlink.com 1.10,2014-01-19 12:26:00,
2014-01-19 06:41:00,52.3,42.0,30.24,North,355,3.0,8.0,67,0.00,,,0.00,weatherlink.com 1.10,2014-01-19 12:41:00,
2014-01-19 06:56:00,52.6,41.0,30.24,NNW,328,2.0,7.0,65,0.00,,,0.00,weatherlink.com 1.10,2014-01-19 12:56:00,
2014-01-19 07:11:00,52.5,40.0,30.25,North,360,1.0,8.0,63,0.00,,,0.00,weatherlink.com 1.10,2014-01-19 13:11:00,
2014-01-19 07:26:00,52.5,40.0,30.25,NNE,15,3.0,8.0,62,0.00,,,0.00,weatherlink.com 1.10,2014-01-19 13:26:00,
2014-01-19 07:41:00,52.2,39.0,30.26,North,355,2.0,8.0,62,0.00,,,0.00,weatherlink.com 1.10,2014-01-19 13:41:00,
2014-01-19 07:56:00,52.1,39.0,30.27,NNE,28,1.0,6.0,61,0.00,,,0.00,weatherlink.com 1.10,2014-01-19 13:56:00,
2014-01-19 08:11:00,52.6,39.0,30.28,North,360,2.0,9.0,60,0.00,,,0.00,weatherlink.com 1.10,2014-01-19 14:11:00,
2014-01-19 08:26:00,53.1,38.0,30.29,NNE,30,3.0,8.0,57,0.00,,,0.00,weatherlink.com 1.10,2014-01-19 14:26:00,
2014-01-19 08:41:00,53.7,36.0,30.29,NNE,23,2.0,9.0,52,0.00,,,0.00,weatherlink.com 1.10,2014-01-19 14:41:00,
2014-01-19 08:56:00,54.7,36.0,30.30,NNE,20,1.0,10.0,49,0.00,,,0.00,weatherlink.com 1.10,2014-01-19 14:56:00,
2014-01-19 09:11:00,55.1,34.0,30.31,NNE,28,4.0,10.0,46,0.00,,,0.00,weatherlink.com 1.10,2014-01-19 15:11:00,
2014-01-19 09:27:00,55.1,33.0,30.32,NE,42,3.0,14.0,44,0.00,,,0.00,weatherlink.com 1.10,2014-01-19 15:27:00,
2014-01-19 09:42:00,55.7,33.0,30.32,ESE,117,5.0,17.0,43,0.00,,,0.00,weatherlink.com 1.10,2014-01-19 15:42:00,
2014-01-19 09:57:00,56.1,33.0,30.33,NE,38,4.0,15.0,42,0.00,,,0.00,weatherlink.com 1.10,2014-01-19 15:57:00,
2014-01-19 10:12:00,57.3,33.0,30.33,NE,43,9.0,14.0,40,0.00,,,0.00,weatherlink.com 1.10,2014-01-19 16:12:00,
2014-01-19 10:27:00,58.2,32.0,30.32,NE,51,5.0,13.0,38,0.00,,,0.00,weatherlink.com 1.10,2014-01-19 16:27:00,
2014-01-19 10:42:00,59.5,32.0,30.33,ENE,70,5.0,13.0,35,0.00,,,0.00,weatherlink.com 1.10,2014-01-19 16:42:00,
2014-01-19 10:57:00,60.4,31.0,30.33,ENE,62,10.0,11.0,33,0.00,,,0.00,weatherlink.com 1.10,2014-01-19 16:57:00,
2014-01-19 11:12:00,60.9,31.0,30.31,ENE,67,12.0,12.0,33,0.00,,,0.00,weatherlink.com 1.10,2014-01-19 17:12:00,
2014-01-19 11:27:00,62.2,30.0,30.31,ENE,74,8.0,11.0,30,0.00,,,0.00,weatherlink.com 1.10,2014-01-19 17:27:00,
2014-01-19 11:42:00,63.0,30.0,30.30,NE,51,5.0,11.0,29,0.00,,,0.00,weatherlink.com 1.10,2014-01-19 17:42:00,
2014-01-19 11:57:00,63.5,31.0,30.29,NE,46,1.0,10.0,29,0.00,,,0.00,weatherlink.com 1.10,2014-01-19 17:57:00,
2014-01-19 12:12:00,64.3,31.0,30.27,ENE,63,1.0,9.0,29,0.00,,,0.00,weatherlink.com 1.10,2014-01-19 18:12:00,
2014-01-19 12:27:00,64.9,31.0,30.26,ENE,73,1.0,4.0,28,0.00,,,0.00,weatherlink.com 1.10,2014-01-19 18:27:00,
2014-01-19 12:42:00,65.7,31.0,30.25,ESE,102,3.0,8.0,27,0.00,,,0.00,weatherlink.com 1.10,2014-01-19 18:42:00,
2014-01-19 12:57:00,66.6,31.0,30.23,ENE,61,1.0,8.0,27,0.00,,,0.00,weatherlink.com 1.10,2014-01-19 18:57:00,
2014-01-19 13:12:00,67.4,30.0,30.22,ENE,78,3.0,7.0,25,0.00,,,0.00,weatherlink.com 1.10,2014-01-19 19:12:00,
2014-01-19 13:27:00,68.0,33.0,30.21,ENE,59,0.0,5.0,27,0.00,,,0.00,weatherlink.com 1.10,2014-01-19 19:27:00,
2014-01-19 13:43:00,69.0,31.0,30.20,NE,54,0.0,3.0,24,0.00,,,0.00,weatherlink.com 1.10,2014-01-19 19:43:00,
2014-01-19 13:58:00,70.0,29.0,30.19,SE,146,0.0,4.0,22,0.00,,,0.00,weatherlink.com 1.10,2014-01-19 19:58:00,
2014-01-19 14:13:00,71.0,30.0,30.19,NNE,15,0.0,1.0,22,0.00,,,0.00,weatherlink.com 1.10,2014-01-19 20:13:00,
2014-01-19 14:28:00,72.0,31.0,30.18,SSE,168,0.0,5.0,22,0.00,,,0.00,weatherlink.com 1.10,2014-01-19 20:28:00,
2014-01-19 14:43:00,72.7,30.0,30.18,WSW,252,0.0,3.0,21,0.00,,,0.00,weatherlink.com 1.10,2014-01-19 20:43:00,
2014-01-19 14:58:00,72.5,30.0,30.18,South,191,0.0,5.0,21,0.00,,,0.00,weatherlink.com 1.10,2014-01-19 20:58:00,
2014-01-19 15:13:00,72.9,31.0,30.17,West,262,0.0,3.0,21,0.00,,,0.00,weatherlink.com 1.10,2014-01-19 21:13:00,
2014-01-19 15:28:00,72.8,32.0,30.16,ENE,60,0.0,4.0,22,0.00,,,0.00,weatherlink.com 1.10,2014-01-19 21:28:00,
2014-01-19 15:43:00,72.7,29.0,30.17,SSW,198,0.0,4.0,20,0.00,,,0.00,weatherlink.com 1.10,2014-01-19 21:43:00,
2014-01-19 15:58:00,72.6,30.0,30.16,SE,131,1.0,5.0,21,0.00,,,0.00,weatherlink.com 1.10,2014-01-19 21:58:00,
2014-01-19 16:13:00,72.2,31.0,30.16,SSW,208,1.0,7.0,22,0.00,,,0.00,weatherlink.com 1.10,2014-01-19 22:13:00,
2014-01-19 16:28:00,72.1,31.0,30.16,South,169,2.0,5.0,22,0.00,,,0.00,weatherlink.com 1.10,2014-01-19 22:28:00,
2014-01-19 16:43:00,71.9,31.0,30.16,SSE,163,2.0,5.0,22,0.00,,,0.00,weatherlink.com 1.10,2014-01-19 22:43:00,
2014-01-19 16:58:00,71.5,31.0,30.15,SSW,198,0.0,3.0,22,0.00,,,0.00,weatherlink.com 1.10,2014-01-19 22:58:00,
2014-01-19 17:13:00,71.3,32.0,30.15,SSW,203,1.0,3.0,23,0.00,,,0.00,weatherlink.com 1.10,2014-01-19 23:13:00,
2014-01-19 17:28:00,70.8,31.0,30.15,SW,217,0.0,5.0,23,0.00,,,0.00,weatherlink.com 1.10,2014-01-19 23:28:00,
2014-01-19 17:43:00,70.1,32.0,30.15,SSW,194,0.0,2.0,24,0.00,,,0.00,weatherlink.com 1.10,2014-01-19 23:43:00,
2014-01-19 17:58:00,69.2,33.0,30.15,SSW,194,0.0,1.0,26,0.00,,,0.00,weatherlink.com 1.10,2014-01-19 23:58:00,
2014-01-19 18:13:00,68.2,35.0,30.15,SSW,194,0.0,0.0,29,0.00,,,0.00,weatherlink.com 1.10,2014-01-20 00:13:00,
2014-01-19 18:28:00,66.8,34.0,30.15,SSW,194,0.0,0.0,30,0.00,,,0.00,weatherlink.com 1.10,2014-01-20 00:28:00,
2014-01-19 18:43:00,65.1,34.0,30.15,SSW,194,0.0,0.0,31,0.00,,,0.00,weatherlink.com 1.10,2014-01-20 00:43:00,
2014-01-19 18:58:00,63.2,33.0,30.15,SSW,194,0.0,0.0,33,0.00,,,0.00,weatherlink.com 1.10,2014-01-20 00:58:00,
2014-01-19 19:13:00,61.4,33.0,30.15,SSW,194,0.0,0.0,34,0.00,,,0.00,weatherlink.com 1.10,2014-01-20 01:13:00,
2014-01-19 19:28:00,59.8,33.0,30.15,SSW,194,0.0,0.0,37,0.00,,,0.00,weatherlink.com 1.10,2014-01-20 01:28:00,
2014-01-19 19:43:00,58.4,33.0,30.15,SSW,194,0.0,0.0,38,0.00,,,0.00,weatherlink.com 1.10,2014-01-20 01:43:00,
2014-01-19 19:58:00,57.2,32.0,30.15,SSW,194,0.0,0.0,39,0.00,,,0.00,weatherlink.com 1.10,2014-01-20 01:58:00,
2014-01-19 20:13:00,56.3,33.0,30.14,SSW,194,0.0,0.0,41,0.00,,,0.00,weatherlink.com 1.10,2014-01-20 02:13:00,
2014-01-19 20:28:00,55.5,32.0,30.14,SSW,194,0.0,0.0,41,0.00,,,0.00,weatherlink.com 1.10,2014-01-20 02:28:00,
2014-01-19 20:43:00,54.9,32.0,30.14,SSW,194,0.0,0.0,42,0.00,,,0.00,weatherlink.com 1.10,2014-01-20 02:43:00,
2014-01-19 20:58:00,54.5,32.0,30.13,SSW,194,0.0,0.0,42,0.00,,,0.00,weatherlink.com 1.10,2014-01-20 02:58:00,
2014-01-19 21:13:00,54.2,31.0,30.13,SSW,194,0.0,0.0,42,0.00,,,0.00,weatherlink.com 1.10,2014-01-20 03:13:00,
2014-01-19 21:28:00,54.1,31.0,30.13,SSW,194,0.0,0.0,42,0.00,,,0.00,weatherlink.com 1.10,2014-01-20 03:28:00,
2014-01-19 21:43:00,53.9,31.0,30.13,SSW,194,0.0,0.0,42,0.00,,,0.00,weatherlink.com 1.10,2014-01-20 03:43:00,
2014-01-19 21:58:00,53.3,31.0,30.12,SSW,194,0.0,0.0,42,0.00,,,0.00,weatherlink.com 1.10,2014-01-20 03:58:00,
2014-01-19 22:13:00,52.9,31.0,30.13,SSW,194,0.0,0.0,44,0.00,,,0.00,weatherlink.com 1.10,2014-01-20 04:13:00,
2014-01-19 22:28:00,52.4,31.0,30.13,SSW,194,0.0,1.0,44,0.00,,,0.00,weatherlink.com 1.10,2014-01-20 04:28:00,
2014-01-19 22:43:00,52.4,31.0,30.13,SSW,194,0.0,1.0,44,0.00,,,0.00,weatherlink.com 1.10,2014-01-20 04:43:00,
2014-01-19 22:58:00,53.0,31.0,30.13,South,180,0.0,2.0,43,0.00,,,0.00,weatherlink.com 1.10,2014-01-20 04:58:00,
2014-01-19 23:13:00,53.3,32.0,30.13,South,180,0.0,1.0,44,0.00,,,0.00,weatherlink.com 1.10,2014-01-20 05:13:00,
2014-01-19 23:28:00,53.2,32.0,30.12,South,180,0.0,1.0,45,0.00,,,0.00,weatherlink.com 1.10,2014-01-20 05:28:00,
2014-01-19 23:59:00,52.1,33.0,30.11,South,180,0.0,0.0,48,0.00,,,0.00,weatherlink.com 1.10,2014-01-20 05:59:00,